Wind_Speed
30 28 28 29 30 31 31 32 32 32 33 33 34 35 35 35 35 36 37 39 41 41 42 42 44 46 47 48 48 47 46 45 46 48 49 50 50 49 48 47 49 54 57 58 57 56 56 56 56 56 55 54 52 52 54 58 61 61 61 62 61 59 58 58 58 58 57 56 54 53 52 52 52 53 51 48 46 44 43 41 39 41 44 47 50
36 32 31 31 31 31 31 32 33 33 33 34 34 35 36 37 37 37 37 38 39 41 41 42 43 44 46 48 49 49 48 47 46 46 48 49 50 51 50 48 48 49 52 55 57 56 57 59 61 61 62 62 60 56 53 53 55 57 59 61 60 58 58 59 60 61 62 61 59 58 57 56 57 57 54 50 48 46 45 44 43 42 42 42 46
39 37 35 33 32 32 32 33 33 34 34 35 35 35 36 36 37 38 39 39 40 40 41 42 42 43 44 46 47 48 49 49 48 47 47 48 50 51 51 50 49 48 48 51 53 54 53 54 57 59 62 64 66 65 61 58 55 54 55 58 60 59 58 59 60 61 64 65 64 62 60 58 58 59 56 52 51 49 49 49 49 47 45 42 42
40 39 38 36 35 34 34 34 34 35 35 35 36 36 36 37 37 38 39 40 40 41 41 42 43 43 43 44 46 47 48 49 49 48 47 48 49 50 51 52 51 50 48 48 49 51 53 52 51 52 53 57 62 66 66 65 62 59 56 57 60 61 60 58 57 57 59 62 62 62 62 60 58 57 55 54 54 53 52 51 50 50 49 45 41
41 41 40 39 38 37 36 35 35 36 37 37 37 37 38 38 39 39 40 40 41 41 42 42 43 44 43 44 44 45 47 48 48 49 48 48 48 50 51 52 52 52 50 49 47 48 50 53 53 50 50 51 54 57 61 63 64 63 60 58 59 61 61 60 59 57 56 56 55 57 60 61 60 59 57 55 55 54 52 51 51 50 49 47 43
42 44 43 43 41 39 38 37 37 37 38 38 39 39 40 40 40 41 41 41 42 42 43 43 43 44 44 44 44 44 45 46 47 48 49 48 48 49 50 51 52 53 53 51 49 47 48 50 52 52 51 50 51 51 53 56 59 59 58 58 59 61 60 59 60 60 59 58 57 56 57 59 59 60 59 57 54 53 51 49 49 50 49 48 45
43 44 44 44 43 41 40 39 39 39 39 40 40 41 41 42 42 42 42 42 43 43 44 44 44 44 44 44 44 44 44 45 46 47 48 49 49 49 49 50 51 53 54 53 51 49 47 47 49 51 52 51 50 50 50 51 54 56 56 56 58 59 59 57 57 57 56 56 57 57 56 56 57 57 58 56 52 50 50 49 49 49 48 48 45
43 44 44 44 44 43 42 41 41 41 41 41 42 42 42 42 43 43 42 43 43 44 44 44 45 45 44 44 44 44 44 44 45 47 48 48 49 49 49 50 51 52 53 54 53 51 48 47 46 48 51 51 49 49 50 50 51 52 54 56 58 60 61 61 60 58 56 55 55 55 54 55 56 56 56 54 51 49 50 50 48 48 47 46 43
42 42 42 43 44 44 43 43 44 43 43 43 43 43 43 43 43 43 43 43 44 45 46 45 45 45 45 44 44 44 45 44 44 46 47 48 49 49 49 49 51 53 54 53 53 53 50 47 46 45 47 49 49 48 49 50 51 50 51 52 55 57 59 61 61 60 59 59 59 58 56 57 58 57 56 54 51 50 50 49 48 47 45 44 42
41 41 43 45 45 45 45 45 45 45 45 45 44 44 44 45 45 45 45 46 46 47 48 48 47 47 46 45 44 44 44 44 44 45 46 47 49 49 49 49 50 52 53 53 52 52 51 49 46 45 45 47 48 48 48 49 50 51 50 50 50 51 51 53 55 56 56 56 57 57 57 57 57 56 54 52 50 49 49 48 48 47 45 44 43
41 42 44 46 47 46 46 46 46 47 47 46 46 46 46 47 47 48 48 48 48 48 49 49 50 50 49 48 47 45 45 44 45 45 45 46 47 48 49 50 50 52 52 52 52 51 52 51 48 46 45 46 47 48 48 48 48 50 51 51 50 49 49 48 48 48 49 49 50 50 51 51 51 50 50 49 48 49 48 48 47 46 45 44 43
40 41 43 46 48 47 47 47 48 48 48 47 47 47 48 48 49 49 49 49 49 50 50 50 50 51 51 51 49 48 46 45 45 46 46 45 46 47 48 49 51 52 51 51 52 51 50 51 49 47 46 46 46 47 48 48 48 48 49 51 51 51 50 49 48 48 48 48 48 48 48 48 48 48 48 48 48 48 47 46 45 45 44 44 43
38 40 43 46 48 49 49 50 51 50 49 48 49 49 50 51 51 51 50 50 50 51 51 51 51 51 51 51 51 49 48 47 46 46 46 45 45 45 47 48 50 52 51 50 51 51 49 50 50 49 47 46 46 47 48 48 48 48 48 49 50 51 51 50 50 49 49 49 48 47 47 47 48 48 48 48 48 47 46 45 44 43 43 43 43
39 41 44 47 49 50 52 53 53 53 52 51 52 53 53 54 53 53 52 51 51 52 52 52 52 52 52 52 51 49 47 47 47 47 46 46 45 44 46 47 49 51 51 49 50 51 49 48 50 50 48 46 45 46 47 48 48 47 47 46 47 47 48 48 49 49 48 48 48 48 48 48 48 47 47 46 45 44 44 43 43 42 43 43 44
42 44 47 49 51 52 53 53 53 53 52 52 53 54 54 54 54 54 53 53 53 54 54 54 53 52 52 51 51 49 47 46 46 46 45 45 44 44 45 47 48 50 50 48 48 50 48 46 47 49 48 46 45 44 45 46 46 46 46 45 45 45 45 45 46 46 46 46 47 47 47 47 46 46 44 43 43 43 43 43 43 43 44 44 45
43 45 47 48 50 51 51 51 51 51 52 53 53 54 55 55 55 55 55 55 55 54 54 54 54 53 52 51 51 49 46 45 45 44 44 44 44 44 45 46 47 49 50 46 45 49 48 44 43 46 47 46 45 44 43 43 44 44 44 44 44 43 43 43 43 43 44 44 44 44 44 44 43 43 42 42 42 43 43 44 44 44 45 45 46
41 42 44 45 47 48 48 48 49 49 50 51 52 52 52 52 52 52 52 52 52 51 51 51 52 53 53 52 51 50 46 44 44 44 43 43 44 44 44 45 46 48 48 45 43 46 48 45 41 41 43 43 43 43 43 42 42 42 41 41 41 41 41 41 41 41 41 41 41 41 42 42 42 42 42 43 43 43 44 44 44 45 45 46 46
39 40 41 43 44 45 46 46 47 47 48 48 48 48 47 46 46 46 47 48 48 48 48 48 48 48 50 51 51 50 47 44 44 44 43 44 44 43 42 43 45 47 47 44 41 43 46 46 43 39 39 40 41 41 41 41 41 41 40 40 40 40 39 39 39 40 40 40 41 41 41 42 42 43 43 44 44 44 45 45 45 45 46 46 46
40 40 41 42 43 43 44 45 45 46 46 46 46 45 44 43 43 43 44 45 45 45 45 45 45 44 45 47 48 49 48 45 44 44 44 43 43 42 41 42 44 46 45 42 40 41 43 45 45 42 38 38 39 40 40 39 39 39 39 39 40 39 39 39 39 39 40 40 41 41 42 42 43 44 44 45 45 45 46 46 46 46 46 46 46
40 40 41 42 42 42 42 43 44 44 44 44 44 43 43 42 42 42 43 43 43 43 42 41 40 39 39 41 43 44 44 43 42 42 42 41 40 39 39 40 42 44 43 40 38 39 41 43 45 44 40 38 37 38 38 38 38 37 37 38 38 39 39 39 39 40 40 41 41 42 42 43 43 44 44 45 45 45 45 44 44 44 44 44 45
39 40 40 40 40 40 40 41 41 42 42 42 41 41 40 40 40 40 41 41 41 40 38 37 35 34 34 34 35 37 38 38 38 38 37 37 36 36 36 37 40 43 42 38 37 38 39 41 42 43 42 39 37 36 36 36 36 36 36 36 37 37 38 38 39 39 39 40 40 41 41 42 42 42 43 43 44 43 43 43 43 43 43 44 45
39 39 39 39 38 39 38 39 39 39 39 39 39 38 37 37 37 37 37 37 37 36 35 33 32 30 29 29 30 32 33 33 33 33 33 33 33 33 33 34 38 41 39 36 35 36 36 38 40 41 41 41 39 38 37 35 34 34 34 35 36 37 37 37 38 38 38 38 38 39 40 40 40 41 41 42 42 42 42 42 43 43 44 45 45
38 38 38 38 38 37 37 37 37 37 37 36 36 36 35 34 33 33 33 33 33 32 31 30 29 28 27 26 27 28 29 29 29 28 28 29 29 28 29 31 35 38 37 34 34 34 34 35 37 38 39 39 39 40 41 40 38 36 36 36 36 37 37 37 37 37 37 37 38 38 39 39 40 40 40 41 42 42 42 43 43 44 44 45 45
37 37 37 37 37 36 36 35 35 35 34 34 34 33 32 32 31 30 29 29 29 28 27 26 26 25 24 23 24 24 25 25 24 24 24 24 24 24 25 29 33 36 35 33 33 32 31 31 33 36 38 38 38 40 41 41 40 38 37 36 37 36 36 36 36 36 36 36 37 37 38 39 39 40 40 41 42 42 42 42 43 43 44 44 44
36 37 37 37 37 36 35 33 33 33 32 32 32 31 31 29 28 27 26 26 26 25 24 24 23 22 22 21 20 21 22 21 20 19 20 19 19 20 24 28 31 34 33 32 31 31 29 28 30 33 36 37 37 38 37 36 36 35 35 35 36 36 36 36 37 37 37 37 37 37 38 38 39 39 40 40 41 41 41 41 42 42 43 43 43
35 36 36 36 36 35 34 32 31 31 30 30 30 29 29 28 27 25 24 24 23 23 22 21 20 19 19 19 18 18 18 17 15 15 15 15 16 19 23 26 28 30 30 29 28 29 28 27 28 30 32 33 33 34 33 33 34 34 34 34 35 35 35 35 35 35 36 36 36 36 37 37 37 38 38 38 38 39 39 39 40 40 41 41 42
35 35 35 35 35 34 34 32 31 30 29 29 28 27 27 26 25 24 24 22 21 20 19 19 18 17 17 17 16 15 14 13 12 12 13 13 15 17 20 21 23 25 26 25 25 26 26 25 25 27 29 30 31 31 32 32 32 32 32 31 31 32 32 32 32 32 32 33 33 34 34 34 34 34 35 35 35 36 36 36 37 37 38 39 39
34 34 34 34 34 33 33 31 30 29 28 27 27 26 25 24 23 23 22 22 20 17 16 16 16 16 15 15 14 14 12 11 11 11 12 12 14 15 16 18 19 21 22 22 23 23 23 23 24 26 28 29 29 29 30 30 30 30 29 28 28 29 29 29 29 29 29 30 30 31 31 32 32 32 32 33 33 33 33 34 34 35 36 36 37
34 33 34 34 33 33 32 30 29 29 27 26 26 26 25 24 23 21 19 19 19 17 15 14 15 14 14 14 14 13 11 10 10 10 11 12 13 14 15 17 18 19 20 21 21 21 21 22 23 25 26 27 27 27 27 28 28 27 26 26 26 26 26 27 27 28 28 28 28 29 29 30 30 30 30 31 31 32 32 32 33 33 34 35 36
34 33 33 33 33 32 32 30 29 28 27 26 25 24 24 24 24 23 19 17 17 17 15 13 13 13 12 13 13 12 11 10 10 10 10 12 13 14 15 15 16 18 19 19 19 19 20 21 22 23 24 24 24 24 24 25 25 24 24 24 24 24 25 25 26 26 26 27 27 28 28 29 29 29 29 29 30 30 30 31 32 32 33 34 35
35 34 34 33 33 33 32 31 29 27 27 26 25 24 22 20 21 23 22 18 15 16 15 14 13 13 12 12 12 12 10 10 10 10 11 12 13 13 14 14 16 17 18 17 17 18 19 19 20 20 21 21 21 21 22 23 23 22 22 22 22 23 23 23 24 24 24 25 25 26 27 27 28 28 29 29 30 30 31 31 32 32 33 34 34
35 35 34 33 33 32 32 32 30 29 27 26 25 25 23 20 17 19 21 21 17 14 15 14 13 13 12 10 10 11 11 10 11 12 13 13 12 12 13 14 15 16 16 16 16 17 17 17 17 18 19 20 20 20 20 21 21 21 21 21 21 21 21 22 22 22 23 23 24 24 25 26 26 27 28 28 29 30 31 31 32 33 33 34 35
35 34 34 34 33 32 32 32 31 30 29 27 25 24 24 23 19 16 17 19 18 15 14 14 13 12 12 10 10 11 11 11 11 12 13 13 12 12 13 14 14 14 15 15 16 16 16 16 16 17 18 18 19 19 19 19 19 19 20 20 20 20 21 21 21 22 23 23 23 24 25 26 26 27 28 28 29 30 31 31 32 33 34 35 36
35 34 34 35 34 33 32 31 31 30 29 28 27 25 23 23 22 18 16 17 17 16 15 14 13 12 12 11 11 11 12 11 12 13 13 13 12 12 13 13 13 14 14 15 15 15 15 16 16 17 17 18 18 18 18 18 18 19 19 19 20 20 21 21 22 22 23 23 24 25 25 26 26 27 28 29 29 30 30 31 32 33 33 34 35
34 33 33 34 34 34 33 31 30 30 30 29 28 26 24 23 22 20 18 16 16 16 16 15 14 13 12 12 12 12 12 12 13 14 14 13 12 11 12 12 13 14 15 14 14 14 14 15 16 16 16 17 17 17 17 18 18 19 19 19 20 20 20 21 21 22 22 23 23 24 24 25 26 26 27 28 28 29 29 29 30 31 31 32 33
34 34 34 34 34 34 33 32 31 30 30 29 28 27 25 24 22 20 19 18 16 16 16 16 15 13 13 13 13 12 13 13 13 14 13 12 11 11 12 13 14 14 14 14 14 14 15 15 15 15 16 16 17 17 17 17 18 18 18 19 19 19 19 19 20 20 21 22 22 23 23 24 24 25 26 26 26 26 27 27 27 28 29 29 30
34 34 35 34 34 33 32 32 31 30 30 29 28 27 26 24 23 21 19 18 17 16 16 16 16 15 15 15 14 13 13 13 13 13 13 12 11 12 13 13 14 14 14 14 15 15 15 15 15 16 16 17 17 17 17 17 17 17 17 17 17 18 18 18 19 20 20 21 21 22 22 23 23 23 24 24 24 25 25 25 25 26 26 27 27
35 35 35 35 34 34 33 32 32 31 30 29 28 28 26 25 23 22 20 19 18 16 16 16 16 16 16 16 14 13 13 13 13 13 13 13 13 13 13 13 13 14 14 15 15 15 15 15 16 16 16 16 16 17 17 16 16 16 16 17 17 17 17 18 18 19 20 20 20 21 21 22 22 22 23 23 23 23 23 24 24 25 25 26 26
34 34 35 35 35 35 34 34 33 32 31 29 28 28 27 25 24 23 21 19 18 17 17 16 16 17 17 16 15 15 14 14 14 13 13 14 14 14 13 13 14 14 14 14 14 15 15 15 15 15 16 16 16 16 16 16 16 16 16 16 16 16 17 17 17 18 19 19 20 20 21 21 21 22 22 22 22 22 23 24 24 24 24 24 24
34 34 34 35 35 35 34 34 33 32 31 30 28 28 27 25 24 23 22 20 19 18 18 17 17 18 18 17 16 16 16 15 15 14 14 15 15 15 14 14 14 14 14 15 15 15 15 15 15 15 15 15 16 16 15 15 15 15 15 15 15 16 16 16 17 18 19 19 20 20 20 21 21 21 21 22 22 22 23 23 23 23 23 23 23
34 34 34 35 35 34 34 33 32 32 31 30 29 28 27 26 25 23 22 21 20 19 18 18 18 19 18 18 17 17 17 17 16 16 16 16 16 16 16 15 15 15 15 15 15 15 15 15 15 15 15 15 15 15 15 15 15 15 16 16 15 16 16 17 17 18 18 19 19 20 20 20 20 20 21 22 22 22 22 22 22 22 21 21 21
35 34 34 34 34 33 33 32 31 30 30 29 29 28 27 27 25 24 23 22 21 20 19 19 19 19 19 18 18 18 18 18 17 17 17 17 17 17 17 16 16 16 16 16 16 15 15 15 15 15 15 15 16 15 16 16 16 16 16 16 15 15 16 16 17 17 18 18 19 20 20 20 20 20 21 21 21 21 21 21 21 20 20 19 19
34 33 33 33 33 33 32 31 30 29 29 28 28 28 27 27 26 25 24 23 22 21 20 19 20 20 20 19 19 18 18 19 19 19 18 18 18 18 18 18 17 17 17 17 16 16 16 16 16 16 16 16 16 16 16 16 16 16 15 15 15 15 15 16 16 16 17 18 19 19 20 20 20 20 20 20 20 20 20 20 20 19 19 18 18
34 33 33 33 33 33 32 32 30 29 28 28 27 27 27 27 26 26 25 24 23 22 21 20 21 21 21 20 20 19 19 20 20 20 20 19 19 19 19 18 18 17 17 17 17 17 17 17 17 17 17 17 17 17 17 16 16 15 15 15 15 15 15 15 15 15 16 17 18 19 20 20 20 20 20 20 20 20 20 19 19 19 18 18 17
35 35 34 34 33 33 32 32 30 29 28 27 26 26 26 27 26 26 25 25 24 24 23 22 21 21 21 21 21 20 20 21 21 21 21 21 21 21 20 19 19 18 18 18 17 17 17 17 17 18 18 18 18 17 17 17 16 16 16 16 16 15 15 15 15 16 16 17 18 19 20 20 20 20 20 20 19 19 19 18 18 18 17 17 17
36 36 35 34 33 32 32 30 29 28 27 26 25 25 25 26 26 25 25 25 25 24 24 24 23 22 22 22 22 22 22 22 22 22 22 22 22 22 21 20 20 19 19 18 18 17 17 17 17 18 18 18 18 18 18 17 17 17 16 16 16 16 16 16 16 16 17 17 18 19 19 19 20 20 19 19 18 18 18 17 17 17 17 17 16
36 35 34 33 32 31 29 28 27 26 25 25 24 24 23 24 25 25 24 24 25 25 25 25 24 24 23 23 23 23 23 23 23 22 22 23 23 23 23 22 21 21 20 19 19 18 17 17 17 17 18 18 18 18 18 18 18 17 17 16 16 16 16 16 16 16 17 17 18 18 18 19 19 19 18 18 17 17 17 17 17 17 16 16 15
34 33 31 30 28 27 27 26 25 24 23 23 23 23 22 22 23 23 23 23 24 24 25 25 26 25 25 24 23 23 23 24 24 24 23 23 24 24 24 24 23 22 21 20 19 19 18 18 18 18 18 18 18 18 18 18 18 17 17 16 16 16 16 16 16 17 17 17 17 18 18 18 18 18 17 17 16 16 16 17 16 16 16 15 15
32 30 29 28 27 26 25 24 24 23 22 22 22 22 22 22 22 22 22 23 23 24 24 25 26 27 27 26 25 24 24 24 24 25 25 24 25 25 25 24 24 23 22 21 20 20 19 19 18 18 18 18 18 18 18 17 17 17 16 16 16 16 16 17 17 17 17 17 17 17 18 18 17 17 16 16 16 16 16 16 16 15 15 15 14
30 29 28 28 27 26 26 25 24 24 23 22 22 22 21 21 22 22 22 22 22 22 23 24 25 26 27 27 27 25 25 24 25 25 25 25 25 25 25 25 24 24 23 23 21 20 20 19 19 18 18 18 18 17 17 17 17 16 16 16 16 16 16 17 16 17 17 17 17 17 17 17 16 16 16 16 16 16 16 16 16 16 15 15 14
30 30 29 29 29 29 28 28 27 26 26 25 24 23 23 22 22 22 22 22 22 22 22 23 24 25 27 28 28 27 26 25 25 25 25 25 25 25 26 26 25 25 24 23 22 21 20 20 19 18 18 18 18 17 17 17 16 16 16 16 16 16 16 16 16 16 16 16 17 17 16 16 16 16 16 16 16 16 16 16 16 16 15 14 12
Wind_Direction
307 302 299 299 299 300 301 301 301 300 300 298 297 294 292 290 289 289 288 286 284 282 277 272 266 263 262 263 265 265 264 263 261 258 255 253 252 251 251 252 253 251 249 248 248 249 249 248 247 245 245 246 245 242 240 239 239 241 243 241 239 238 241 244 247 248 248 246 246 246 245 243 244 247 250 251 250 250 249 247 249 252 251 250 249
308 305 303 301 301 300 300 300 299 299 299 298 298 297 294 292 290 289 288 288 287 285 283 279 274 269 265 262 263 264 264 263 261 259 257 255 253 251 250 250 252 252 250 249 248 249 250 251 250 248 247 247 247 246 244 242 239 238 239 239 240 241 244 247 250 251 251 250 249 249 247 245 245 247 250 250 249 248 247 247 251 254 254 253 252
304 303 303 301 302 302 301 301 299 298 297 297 297 296 295 294 291 289 288 287 287 286 285 283 280 276 272 268 265 263 264 264 262 260 257 256 254 252 250 249 250 251 251 250 248 247 248 250 251 250 249 249 248 248 247 246 244 241 239 238 240 243 246 248 250 252 252 251 250 249 247 245 246 248 250 250 250 248 247 249 253 255 255 254 255
299 299 300 299 300 301 301 301 299 297 296 295 296 296 295 294 292 291 289 287 286 285 285 284 282 280 278 274 271 267 265 265 264 262 259 256 255 253 252 250 249 248 250 251 249 247 246 246 247 249 249 249 249 248 248 248 247 246 243 242 242 243 245 247 249 251 251 250 250 250 247 245 246 248 248 248 248 249 249 250 253 255 256 257 258
295 296 297 297 299 300 300 299 297 296 295 294 294 294 294 293 292 291 290 288 286 284 283 282 282 281 279 278 276 273 271 268 266 265 263 260 256 254 253 252 250 248 247 249 250 249 246 244 244 245 247 248 247 247 247 247 248 248 245 243 243 244 245 246 247 249 252 252 252 253 250 246 246 246 246 246 246 247 248 249 251 254 257 260 262
293 293 294 296 298 299 299 298 296 295 293 293 292 292 292 292 291 290 288 287 286 284 281 280 280 280 280 279 277 276 275 273 271 269 267 264 260 256 254 253 251 249 247 246 248 250 250 246 242 242 245 247 246 245 246 245 245 247 246 243 243 243 244 247 248 248 250 251 252 252 250 249 248 247 246 245 245 246 245 245 248 253 257 262 266
293 293 294 295 296 297 297 296 295 294 293 292 291 291 291 290 289 288 287 286 285 284 282 280 279 278 278 279 278 277 277 276 275 274 271 268 265 261 257 255 252 250 248 246 245 248 250 249 244 241 242 245 246 244 244 243 242 243 242 242 243 242 244 248 250 248 248 248 248 249 249 249 249 248 246 245 244 243 241 241 245 252 259 265 267
293 293 294 294 294 295 296 296 295 294 293 292 291 291 290 289 288 287 286 286 285 285 284 281 279 278 276 276 277 277 277 277 277 277 275 272 269 265 261 258 254 250 248 246 244 245 248 249 248 244 240 241 243 243 243 243 242 241 240 239 240 241 242 244 245 245 246 245 245 245 246 246 246 246 244 242 241 239 238 240 247 255 261 265 264
293 294 294 293 293 294 295 295 294 294 294 293 291 290 289 288 287 286 285 286 286 286 285 284 282 279 276 275 274 275 276 277 277 278 277 275 272 269 265 262 258 253 247 245 244 243 245 247 249 248 243 240 239 241 242 241 241 241 240 239 239 239 240 240 239 241 243 243 242 242 242 242 242 241 240 238 238 238 240 244 251 256 258 258 257
292 293 292 292 292 294 295 295 295 295 295 294 292 291 290 288 287 286 286 285 285 285 284 284 283 281 279 276 273 273 274 275 276 277 278 277 276 272 268 264 261 256 250 245 243 242 243 245 247 248 246 243 239 238 239 239 239 239 239 239 239 239 239 238 237 237 238 239 240 239 239 240 239 238 237 236 237 238 241 246 250 253 252 252 251
292 292 292 292 293 294 296 296 297 297 297 295 294 292 290 289 287 286 285 284 284 283 282 282 282 282 281 279 276 273 272 272 274 275 276 277 277 275 272 267 262 258 253 247 243 242 241 242 244 246 245 244 242 239 237 237 237 236 236 236 237 238 237 236 235 234 234 235 236 237 238 238 238 237 237 237 238 240 242 245 247 248 248 248 247
295 295 294 294 293 295 297 297 298 299 298 296 295 293 291 290 288 287 285 284 283 282 281 280 281 280 280 279 278 276 273 271 271 272 273 274 276 276 274 270 265 259 255 248 244 243 242 240 242 244 243 243 243 242 240 238 236 235 233 233 234 235 236 235 235 234 234 235 236 236 237 238 238 238 238 239 240 242 244 244 245 245 246 246 246
291 292 291 291 291 294 296 296 298 299 299 296 295 293 291 289 287 286 286 284 283 282 280 279 279 279 279 278 277 276 274 271 269 269 270 271 273 275 273 271 267 261 255 249 242 241 243 241 240 242 242 241 241 241 241 240 239 237 234 232 232 232 233 233 234 234 233 233 233 234 235 236 237 238 239 240 241 242 243 244 244 244 245 246 247
286 285 286 287 289 292 294 295 297 298 297 296 294 292 290 288 286 285 285 283 282 281 280 279 277 276 276 276 276 275 273 271 268 267 267 268 271 273 272 269 266 261 256 251 242 239 242 243 240 239 240 240 240 240 240 240 240 239 238 236 234 233 233 233 233 232 232 232 232 233 233 234 235 237 238 239 241 242 243 243 244 245 245 246 247
286 285 285 287 289 291 293 295 296 297 297 295 294 293 291 289 288 286 285 284 282 281 279 277 276 275 274 274 274 274 272 271 269 266 265 267 268 270 269 266 264 260 256 252 244 238 239 242 240 238 238 238 238 238 238 238 238 238 238 237 236 235 235 235 235 234 234 234 235 235 236 236 236 237 237 238 239 240 241 241 242 243 244 246 247
292 290 289 290 291 292 294 296 297 297 296 295 294 293 291 290 289 288 287 286 284 282 280 277 275 273 272 272 273 273 271 271 270 267 265 265 267 268 267 264 261 258 254 251 245 239 238 240 239 236 236 236 236 236 235 235 236 236 236 236 236 235 235 235 235 236 236 236 236 236 236 236 237 237 237 238 238 239 240 241 242 244 246 248 249
297 295 294 294 294 296 297 298 298 297 295 294 293 292 291 290 289 288 287 286 285 284 282 280 276 272 270 270 271 272 271 271 270 268 266 265 267 267 264 260 258 255 252 248 243 239 238 239 237 234 233 234 234 235 234 232 232 233 233 233 233 233 233 233 233 234 234 234 234 234 234 235 235 236 237 238 239 240 241 243 245 248 251 252 253
302 301 300 300 300 301 301 301 300 299 297 296 295 294 293 291 289 288 287 286 286 285 284 282 279 273 269 268 269 270 271 271 270 269 267 266 266 264 260 256 254 252 249 245 241 238 237 239 237 233 230 230 231 232 232 232 231 230 230 230 231 231 231 231 231 232 232 233 233 233 233 234 236 237 238 240 241 243 245 248 250 252 253 254 254
307 307 306 305 305 305 305 304 303 301 300 299 298 297 294 291 288 287 286 286 286 287 287 286 283 278 273 269 269 270 271 271 270 269 267 265 264 260 255 252 250 249 247 242 238 236 236 237 238 235 231 228 228 229 229 230 230 230 230 229 229 230 229 229 230 231 232 233 234 235 236 237 238 240 241 243 244 247 249 251 252 252 252 252 253
310 309 308 308 308 307 306 305 305 304 302 301 299 298 296 293 290 288 287 288 289 290 291 291 288 284 279 275 272 272 272 271 270 268 266 263 259 255 250 248 247 247 245 240 235 234 234 235 236 237 234 230 227 227 227 227 228 228 229 229 230 230 230 230 231 232 233 234 236 237 238 240 241 242 243 245 246 247 249 249 250 250 251 251 252
311 310 310 310 309 308 308 307 307 306 305 303 301 299 298 296 294 292 291 291 292 293 294 293 291 287 283 279 276 274 272 271 269 266 263 259 254 250 247 246 246 246 243 238 232 231 233 234 234 235 235 233 229 227 225 225 225 226 226 227 228 229 230 231 231 232 233 234 235 236 238 239 240 241 242 244 245 245 246 247 248 248 249 250 251
312 312 312 311 310 310 310 310 309 309 307 305 303 301 300 298 296 295 294 294 294 294 294 293 291 287 284 281 278 275 273 271 268 264 260 256 251 248 245 243 244 245 242 236 231 229 231 232 232 232 232 232 232 230 229 227 226 225 225 225 225 226 227 229 230 231 232 233 234 236 237 238 239 240 241 243 244 245 246 247 247 248 249 250 251
314 314 313 313 312 312 312 312 312 311 309 307 305 303 302 300 299 297 296 296 294 293 293 293 291 289 286 283 280 277 273 270 266 262 258 253 250 247 243 239 240 242 241 235 230 228 228 229 230 230 230 230 231 232 232 231 229 229 228 228 227 227 228 229 231 232 233 234 236 237 238 239 240 241 242 244 245 246 247 247 248 249 249 250 251
315 315 315 314 314 313 314 314 314 314 312 310 308 306 304 302 301 300 299 297 295 295 295 294 292 290 287 284 279 275 272 269 265 261 257 253 249 243 237 235 237 240 238 233 229 228 226 226 227 228 227 228 230 232 232 232 231 231 232 233 232 232 233 233 234 234 235 236 238 239 241 242 244 244 245 246 247 247 247 248 249 250 251 252 252
317 317 316 315 315 315 315 315 315 315 315 313 311 309 306 304 303 303 302 299 297 297 296 295 293 290 287 284 279 275 272 270 267 262 258 253 247 239 233 232 234 237 235 232 230 229 227 223 223 225 226 226 228 231 232 232 231 230 230 231 232 233 233 234 234 235 236 237 239 240 242 243 245 246 247 248 249 250 250 250 251 251 252 253 254
318 318 317 316 316 316 316 316 316 316 315 315 313 311 308 307 306 306 304 301 298 297 296 295 293 289 286 283 280 276 274 272 269 264 258 251 242 236 232 231 233 236 235 232 231 231 228 223 221 223 225 224 225 227 228 228 228 227 226 226 229 231 231 232 233 234 235 236 238 239 240 241 243 244 246 247 248 249 250 251 251 252 253 253 254
318 318 317 316 316 316 316 315 315 316 316 315 314 312 309 308 308 307 304 301 299 298 296 295 292 288 285 282 280 278 275 271 266 261 255 248 240 236 235 233 233 235 234 232 231 229 227 223 220 220 221 221 221 222 223 225 226 226 224 223 225 227 229 229 230 231 232 234 235 236 237 238 239 241 243 244 245 246 247 248 249 250 251 252 253
317 317 316 316 316 316 317 316 315 315 316 315 315 313 311 308 307 306 304 302 301 299 295 292 289 286 283 280 278 277 276 271 264 257 251 243 237 235 234 231 231 231 230 229 229 227 224 220 217 217 218 218 218 218 220 222 224 225 224 222 222 223 225 226 227 228 229 231 232 234 235 236 237 238 240 241 242 244 245 246 247 249 251 252 254
315 315 315 316 316 316 316 316 316 315 314 314 314 314 312 310 307 306 304 302 301 300 296 291 287 286 284 282 279 277 275 271 264 255 247 240 233 230 230 229 229 230 229 228 227 225 222 218 215 215 217 217 216 215 216 218 221 222 223 222 221 221 223 224 226 226 227 228 230 232 234 236 237 238 240 241 242 243 244 246 247 248 250 251 252
314 314 314 314 315 316 315 315 316 316 314 313 313 312 311 309 307 306 306 303 300 299 297 290 285 282 281 280 278 276 272 266 259 250 241 235 230 227 227 226 226 227 226 225 224 221 219 216 214 214 215 216 215 213 213 215 217 219 220 221 221 221 222 223 225 227 227 228 229 229 231 233 234 236 237 239 241 243 244 245 246 247 249 250 252
312 313 313 313 314 315 315 314 315 317 316 314 312 311 309 307 304 303 304 304 301 297 294 290 284 281 280 277 274 272 267 259 253 245 239 235 231 226 223 221 222 224 222 220 219 218 216 214 213 212 213 213 213 212 212 213 214 216 218 221 222 223 224 224 226 228 230 231 232 233 234 234 235 236 237 238 239 241 242 243 244 245 246 248 250
311 311 311 311 312 313 314 314 314 316 316 315 312 311 309 307 302 297 297 300 301 295 290 288 285 283 284 280 273 267 260 253 247 244 242 240 233 225 221 219 220 223 221 216 217 218 216 214 212 211 211 212 212 212 212 212 214 215 218 221 223 226 228 229 231 232 233 235 237 238 240 241 242 243 243 244 244 245 245 246 247 247 248 249 250
309 310 309 309 310 311 312 313 313 313 314 314 313 311 309 307 305 296 290 293 297 294 289 285 282 277 275 271 266 263 260 255 249 245 246 243 234 225 223 221 219 221 220 217 216 216 216 215 213 211 212 213 213 213 214 214 215 217 219 222 225 227 229 232 234 235 237 239 240 242 243 245 246 248 249 249 250 250 250 251 251 252 252 253 253
307 308 308 308 308 309 310 312 312 311 311 311 311 311 309 306 305 301 291 287 288 289 287 282 277 273 269 265 261 257 255 253 248 245 245 243 235 229 226 223 220 220 221 219 217 215 215 215 214 213 214 215 214 215 215 215 217 219 221 224 226 228 231 233 235 237 239 241 242 244 245 246 247 249 250 251 251 251 251 252 252 253 254 254 255
306 307 306 306 306 307 309 310 310 310 309 308 308 308 308 305 303 301 297 290 284 283 283 280 275 270 264 260 256 251 249 247 245 245 246 244 237 230 226 223 221 221 223 222 220 218 217 217 216 216 218 218 218 218 217 217 218 220 222 225 227 229 232 234 236 238 240 242 244 245 246 247 248 249 250 251 251 252 252 252 253 253 254 254 255
305 305 305 304 304 304 306 307 308 307 306 305 304 304 304 304 301 298 297 293 286 281 278 276 274 268 261 257 252 248 246 245 243 244 246 243 237 229 224 221 221 223 225 224 222 220 220 220 220 220 221 222 223 222 221 221 221 221 222 224 225 227 229 232 235 237 240 242 244 245 247 248 249 250 251 252 252 252 253 253 252 252 253 253 253
305 304 304 303 302 303 304 305 306 305 304 302 301 300 300 300 299 296 294 291 287 281 275 272 270 266 260 256 251 246 244 242 240 241 240 237 233 228 223 220 221 223 225 225 224 223 222 221 222 222 222 223 224 225 224 223 222 222 223 224 225 227 229 231 234 236 239 241 243 245 246 247 248 249 250 250 251 251 252 252 251 251 251 252 252
305 304 303 303 303 303 304 304 304 303 302 300 299 297 296 295 295 294 292 289 285 281 274 270 267 262 259 256 252 246 242 240 238 237 234 231 231 230 226 222 221 221 223 225 225 226 225 223 223 223 222 222 222 221 222 222 222 224 226 227 229 231 231 233 234 236 237 240 241 243 245 246 247 248 249 250 251 251 251 251 251 251 251 251 251
303 303 303 303 303 303 303 303 303 301 300 299 297 294 293 291 290 290 289 286 283 279 274 270 265 260 257 254 250 247 244 240 237 235 231 230 231 230 227 225 223 223 225 226 227 227 227 226 225 224 222 221 220 219 220 221 223 226 228 230 232 235 236 237 238 239 240 240 241 242 244 245 247 249 250 250 251 251 250 250 250 250 250 250 250
304 303 302 302 302 302 302 302 301 300 299 298 295 293 291 288 286 285 284 282 280 276 273 269 265 261 257 252 247 245 243 240 237 234 230 229 230 229 228 226 226 227 228 228 229 230 228 227 226 224 223 222 221 221 224 226 229 232 235 236 238 240 241 242 243 243 243 244 243 243 245 246 247 248 248 249 249 249 249 250 250 249 249 248 248
305 304 303 302 301 301 301 301 300 299 298 296 294 292 290 287 285 283 281 279 276 273 270 267 264 261 258 254 248 244 241 239 237 234 231 230 229 228 227 226 225 226 228 229 230 230 229 229 228 226 224 224 224 226 228 231 234 237 238 239 241 241 242 244 245 246 247 247 246 245 245 246 246 247 247 247 248 248 249 250 249 248 247 245 245
305 304 303 302 302 302 301 300 299 298 296 294 292 290 288 285 283 280 277 275 273 270 267 264 262 260 258 255 250 246 242 240 237 234 232 230 229 227 226 225 224 224 225 227 229 229 230 230 230 229 229 228 228 229 231 233 235 237 238 239 241 242 244 245 247 248 249 248 247 245 245 245 246 246 246 247 247 248 248 248 246 246 246 245 246
306 306 305 304 304 303 301 300 299 297 295 293 290 288 285 283 280 278 275 272 270 267 264 261 259 258 257 255 252 247 243 241 238 235 233 232 230 228 227 225 224 224 223 224 225 226 227 229 230 230 231 231 231 232 233 234 236 238 240 242 244 245 247 249 249 250 251 250 248 247 245 245 246 246 246 247 247 247 247 246 245 245 246 246 248
309 308 306 305 304 303 301 301 299 297 295 292 289 286 284 281 278 276 273 270 267 264 262 260 257 256 254 253 251 248 244 242 239 237 235 233 232 231 229 227 225 225 224 224 223 223 223 225 227 229 230 231 232 233 234 236 239 241 243 245 247 248 250 252 253 254 253 251 248 247 245 244 244 244 244 244 244 244 244 244 243 244 245 245 245
309 307 306 304 303 302 301 300 299 297 295 292 288 285 282 279 277 274 271 268 265 262 259 257 256 254 253 252 250 248 246 243 240 238 235 234 234 233 231 229 227 226 226 225 224 223 223 224 225 228 230 231 232 233 234 237 239 241 244 247 249 251 254 255 255 255 254 251 248 246 243 242 242 241 240 240 239 239 240 240 240 240 240 239 237
308 306 305 304 302 301 300 299 298 296 294 291 288 284 281 278 276 273 269 266 263 259 256 254 253 252 252 250 248 246 245 244 242 239 236 234 234 234 233 230 229 227 226 226 224 223 222 223 224 226 228 229 230 232 233 235 238 240 244 248 252 254 256 257 256 256 255 252 249 245 242 241 240 239 237 236 235 235 236 235 235 234 232 230 228
308 307 306 305 303 302 301 299 298 296 294 290 288 284 280 278 276 274 271 267 263 259 256 253 251 249 249 248 247 245 243 242 242 240 237 234 232 232 232 230 228 227 226 226 225 224 223 224 225 226 227 228 229 231 232 234 237 240 244 249 253 256 258 259 258 257 256 253 249 244 241 239 237 236 235 234 233 232 232 230 228 226 223 220 218
310 309 308 307 306 305 303 301 300 298 294 291 289 285 282 279 276 274 273 269 265 260 257 253 250 249 247 246 245 244 242 240 240 239 237 235 233 231 230 229 228 227 226 226 225 224 224 224 225 226 227 228 229 230 232 234 236 240 244 249 253 256 258 258 257 256 255 252 247 242 237 235 234 233 232 231 229 228 226 223 221 218 214 210 207
313 312 311 310 309 307 304 303 301 298 295 292 288 285 283 280 277 274 273 270 266 262 258 254 251 249 247 246 245 243 241 239 238 237 236 235 233 232 230 229 227 226 226 225 225 224 224 224 225 226 227 227 229 230 232 234 236 240 244 248 251 254 254 253 252 251 250 246 242 237 233 231 230 228 228 226 223 220 218 215 211 207 203 198 196
314 313 312 310 309 307 305 303 301 299 296 293 289 286 283 279 276 274 272 269 267 264 260 255 251 248 246 245 244 243 241 240 238 236 235 234 232 231 231 229 227 226 226 226 225 224 224 224 225 225 226 227 228 230 232 234 237 241 244 247 249 250 249 246 244 243 240 236 233 230 227 226 224 222 221 218 215 212 209 205 201 196 192 191 196
314 313 311 310 308 307 305 303 301 299 296 293 290 287 283 280 277 274 271 268 266 263 260 257 253 249 245 243 242 241 241 240 238 237 236 234 232 230 229 228 227 226 226 226 225 223 223 224 225 225 226 227 229 230 232 235 237 240 243 245 246 246 244 241 239 236 231 226 223 222 220 219 217 215 212 209 206 203 199 195 190 188 189 196 205
Height
2960 2959 2957 2956 2954 2952 2950 2948 2947 2945 2944 2942 2941 2940 2940 2939 2938 2937 2935 2933 2932 2931 2929 2929 2929 2929 2930 2930 2930 2930 2931 2931 2930 2930 2930 2930 2930 2930 2931 2931 2931 2932 2934 2935 2937 2939 2940 2941 2943 2945 2948 2948 2950 2953 2955 2958 2960 2963 2965 2967 2969 2972 2974 2976 2977 2980 2983 2986 2991 2994 2997 2999 3001 3003 3005 3007 3009 3010 3012 3015 3016 3017 3019 3020 3022
2955 2953 2952 2951 2949 2947 2945 2943 2942 2940 2939 2937 2936 2935 2933 2932 2931 2930 2930 2928 2926 2924 2922 2921 2921 2921 2922 2922 2922 2922 2922 2923 2923 2923 2922 2922 2923 2923 2923 2924 2924 2925 2926 2927 2929 2931 2932 2933 2935 2937 2940 2940 2942 2945 2947 2950 2952 2954 2957 2960 2962 2965 2968 2969 2971 2973 2974 2977 2981 2985 2988 2991 2993 2995 2998 3000 3003 3004 3006 3008 3009 3011 3012 3014 3016
2950 2948 2946 2945 2943 2941 2940 2938 2936 2935 2933 2932 2931 2929 2928 2926 2925 2924 2923 2922 2920 2918 2916 2915 2914 2915 2915 2915 2915 2915 2914 2914 2914 2915 2915 2914 2915 2915 2915 2916 2916 2917 2918 2919 2921 2922 2923 2925 2927 2929 2931 2932 2934 2937 2940 2942 2944 2946 2949 2952 2955 2958 2961 2962 2964 2966 2967 2969 2972 2975 2979 2982 2985 2987 2990 2993 2996 2997 2998 3000 3001 3003 3005 3007 3009
2945 2943 2941 2939 2938 2936 2935 2933 2931 2930 2928 2926 2925 2923 2922 2921 2919 2917 2916 2914 2913 2911 2910 2909 2908 2908 2908 2908 2907 2907 2906 2906 2906 2906 2907 2906 2906 2907 2907 2908 2908 2909 2910 2912 2913 2914 2915 2916 2919 2922 2924 2924 2926 2929 2931 2934 2936 2938 2941 2944 2947 2951 2954 2955 2957 2959 2961 2961 2963 2967 2971 2974 2977 2980 2982 2985 2987 2989 2991 2992 2993 2995 2997 3000 3002
2939 2937 2935 2934 2932 2931 2929 2928 2926 2924 2923 2921 2919 2917 2915 2914 2912 2910 2909 2907 2906 2905 2904 2903 2902 2902 2902 2901 2900 2900 2899 2899 2898 2898 2898 2898 2898 2899 2899 2900 2900 2901 2902 2904 2905 2906 2907 2909 2911 2914 2916 2916 2918 2921 2923 2926 2929 2931 2934 2937 2939 2942 2945 2947 2949 2952 2954 2955 2956 2959 2962 2966 2969 2972 2974 2976 2978 2980 2982 2984 2986 2988 2989 2991 2994
2934 2931 2930 2928 2926 2925 2924 2922 2920 2919 2917 2915 2913 2911 2909 2907 2905 2903 2902 2900 2899 2899 2898 2897 2896 2896 2895 2894 2893 2893 2892 2891 2891 2890 2890 2890 2890 2890 2891 2891 2892 2893 2894 2895 2897 2899 2899 2901 2903 2906 2907 2908 2911 2914 2916 2919 2921 2923 2926 2930 2932 2934 2936 2938 2941 2944 2946 2948 2950 2952 2954 2957 2960 2963 2966 2968 2970 2972 2975 2976 2977 2979 2981 2983 2986
2928 2926 2924 2922 2920 2919 2917 2916 2914 2912 2911 2909 2907 2905 2903 2900 2899 2897 2895 2894 2893 2892 2891 2890 2889 2889 2888 2887 2886 2885 2885 2884 2884 2883 2882 2882 2882 2882 2882 2883 2883 2884 2885 2887 2889 2891 2892 2893 2895 2897 2899 2901 2904 2907 2909 2911 2913 2915 2919 2922 2925 2926 2927 2930 2933 2935 2938 2940 2942 2944 2947 2949 2952 2955 2958 2961 2963 2965 2967 2968 2969 2971 2974 2977 2980
2921 2919 2918 2916 2914 2912 2911 2909 2907 2905 2904 2902 2900 2898 2896 2894 2892 2890 2889 2887 2886 2885 2884 2883 2882 2881 2881 2880 2879 2878 2877 2877 2877 2875 2875 2874 2874 2874 2874 2874 2875 2875 2877 2879 2880 2882 2884 2886 2888 2889 2891 2894 2897 2899 2902 2904 2905 2907 2911 2914 2917 2918 2920 2922 2924 2927 2929 2932 2934 2936 2939 2941 2943 2947 2950 2952 2954 2956 2959 2960 2963 2966 2968 2970 2973
2915 2913 2911 2909 2908 2906 2904 2902 2900 2898 2897 2895 2893 2891 2889 2887 2885 2884 2882 2881 2879 2878 2876 2875 2874 2874 2873 2873 2872 2871 2870 2870 2870 2868 2867 2867 2866 2866 2866 2866 2866 2867 2868 2870 2872 2874 2877 2879 2880 2882 2884 2886 2889 2891 2894 2896 2898 2900 2903 2906 2908 2910 2912 2914 2916 2918 2921 2924 2926 2929 2931 2932 2935 2938 2941 2943 2946 2950 2953 2955 2957 2960 2962 2963 2965
2909 2907 2904 2902 2901 2899 2897 2895 2893 2891 2889 2887 2886 2884 2882 2880 2878 2877 2875 2874 2872 2871 2869 2868 2867 2866 2865 2865 2864 2864 2864 2863 2862 2861 2860 2859 2858 2857 2858 2858 2858 2858 2860 2862 2864 2866 2869 2871 2873 2875 2876 2878 2881 2883 2886 2888 2890 2893 2896 2898 2900 2902 2904 2906 2908 2911 2913 2916 2918 2921 2923 2925 2928 2931 2934 2937 2941 2944 2946 2948 2950 2952 2954 2956 2957
2903 2901 2898 2896 2894 2892 2890 2888 2886 2884 2882 2880 2878 2876 2874 2873 2871 2869 2868 2866 2865 2863 2861 2860 2859 2857 2857 2856 2856 2856 2856 2856 2855 2854 2853 2853 2851 2850 2849 2850 2850 2850 2852 2854 2856 2858 2861 2864 2866 2868 2869 2871 2873 2876 2878 2880 2883 2885 2888 2891 2893 2895 2897 2899 2902 2904 2907 2909 2912 2914 2916 2919 2923 2926 2929 2932 2934 2936 2939 2941 2942 2944 2946 2948 2950
2897 2895 2892 2889 2887 2885 2883 2881 2879 2877 2875 2873 2870 2868 2866 2864 2863 2861 2860 2858 2856 2855 2853 2852 2851 2849 2848 2847 2848 2848 2848 2849 2847 2846 2846 2846 2845 2843 2842 2841 2842 2843 2845 2847 2849 2851 2853 2856 2859 2861 2863 2864 2866 2868 2870 2873 2875 2878 2880 2883 2886 2888 2890 2893 2896 2898 2901 2903 2906 2909 2912 2915 2917 2920 2923 2926 2928 2930 2932 2933 2935 2937 2939 2941 2944
2891 2889 2886 2883 2881 2879 2877 2874 2872 2870 2868 2866 2863 2861 2858 2856 2854 2853 2851 2850 2848 2846 2845 2844 2842 2841 2840 2839 2839 2839 2840 2841 2840 2838 2838 2838 2838 2837 2835 2834 2833 2834 2837 2840 2842 2844 2846 2849 2851 2854 2856 2858 2859 2861 2863 2866 2868 2870 2873 2875 2878 2881 2884 2886 2889 2892 2894 2897 2899 2903 2906 2909 2911 2914 2917 2919 2921 2923 2924 2926 2928 2930 2932 2935 2937
2885 2883 2880 2877 2875 2873 2870 2868 2866 2863 2861 2858 2855 2852 2850 2847 2846 2844 2843 2841 2839 2838 2836 2835 2834 2833 2832 2830 2830 2830 2832 2832 2831 2830 2830 2830 2830 2829 2828 2827 2826 2826 2829 2832 2835 2837 2839 2841 2844 2847 2849 2851 2853 2855 2857 2859 2861 2863 2865 2868 2870 2874 2876 2879 2882 2885 2888 2890 2893 2897 2900 2902 2905 2907 2909 2911 2913 2915 2917 2920 2922 2924 2926 2928 2931
2879 2876 2874 2871 2869 2866 2863 2861 2859 2856 2853 2850 2847 2844 2841 2838 2837 2835 2834 2832 2830 2829 2827 2826 2825 2824 2823 2822 2821 2822 2823 2823 2822 2822 2822 2822 2823 2822 2820 2820 2819 2819 2821 2825 2827 2830 2833 2835 2837 2839 2842 2844 2846 2848 2850 2852 2854 2856 2858 2861 2864 2867 2869 2872 2875 2878 2881 2884 2887 2890 2893 2895 2898 2900 2901 2904 2906 2908 2911 2914 2916 2918 2920 2921 2923
2873 2870 2867 2865 2862 2859 2857 2855 2852 2849 2845 2842 2839 2836 2833 2830 2828 2826 2824 2823 2820 2819 2818 2816 2815 2815 2815 2814 2812 2813 2815 2815 2814 2814 2815 2814 2814 2813 2812 2812 2813 2813 2815 2818 2820 2823 2826 2828 2830 2832 2835 2837 2839 2842 2844 2846 2848 2850 2853 2855 2858 2860 2863 2866 2869 2871 2874 2877 2880 2883 2885 2888 2890 2893 2895 2898 2900 2902 2905 2907 2909 2911 2913 2915 2917
2867 2864 2861 2859 2856 2853 2850 2847 2844 2841 2838 2834 2831 2828 2825 2822 2820 2817 2815 2813 2811 2809 2808 2807 2806 2805 2805 2805 2804 2804 2806 2807 2806 2806 2807 2806 2806 2805 2805 2805 2806 2807 2808 2811 2814 2816 2819 2822 2824 2826 2828 2830 2833 2835 2837 2840 2842 2845 2847 2850 2852 2855 2858 2860 2863 2865 2868 2871 2874 2876 2879 2882 2884 2887 2889 2892 2894 2897 2899 2901 2903 2905 2907 2909 2911
2861 2858 2855 2852 2849 2846 2843 2840 2836 2833 2830 2826 2823 2820 2818 2815 2812 2809 2806 2804 2802 2801 2799 2798 2797 2796 2796 2796 2796 2795 2796 2798 2798 2798 2799 2799 2798 2798 2798 2799 2800 2800 2801 2804 2808 2810 2812 2815 2818 2820 2822 2824 2826 2829 2831 2834 2837 2839 2842 2844 2847 2850 2852 2855 2858 2860 2863 2866 2868 2871 2874 2876 2879 2881 2884 2886 2888 2891 2893 2895 2897 2899 2900 2902 2904
2854 2852 2849 2846 2843 2840 2836 2833 2829 2826 2822 2819 2816 2813 2810 2807 2805 2802 2799 2797 2795 2793 2791 2789 2788 2788 2788 2788 2788 2787 2788 2790 2790 2790 2790 2791 2790 2791 2791 2792 2793 2793 2795 2798 2802 2804 2806 2809 2811 2814 2816 2818 2820 2822 2825 2828 2831 2834 2836 2839 2842 2845 2847 2850 2853 2855 2858 2860 2863 2866 2868 2871 2873 2876 2878 2880 2883 2885 2887 2889 2890 2892 2894 2896 2897
2849 2846 2843 2840 2837 2834 2830 2826 2823 2819 2816 2812 2809 2806 2803 2800 2798 2796 2793 2791 2789 2787 2785 2783 2781 2781 2780 2780 2780 2780 2780 2781 2782 2782 2782 2783 2784 2784 2785 2785 2786 2787 2789 2793 2796 2798 2800 2803 2805 2808 2811 2813 2815 2817 2820 2823 2826 2828 2831 2834 2837 2839 2842 2845 2847 2850 2852 2855 2857 2860 2863 2865 2868 2870 2872 2874 2876 2878 2880 2882 2884 2886 2888 2889 2890
2844 2841 2838 2834 2831 2828 2825 2821 2817 2814 2810 2807 2803 2800 2797 2794 2792 2789 2787 2785 2783 2781 2779 2778 2776 2775 2774 2774 2773 2773 2773 2773 2774 2774 2775 2776 2777 2778 2778 2779 2780 2781 2784 2788 2790 2792 2795 2797 2800 2803 2805 2808 2810 2812 2815 2818 2821 2823 2826 2829 2831 2834 2836 2839 2841 2844 2847 2849 2852 2854 2857 2859 2862 2864 2866 2868 2870 2872 2874 2876 2878 2880 2881 2883 2884
2839 2836 2832 2829 2826 2823 2819 2816 2812 2809 2805 2801 2798 2795 2792 2789 2787 2784 2782 2780 2778 2776 2775 2773 2771 2770 2769 2769 2768 2767 2767 2767 2767 2768 2769 2770 2771 2772 2773 2774 2775 2776 2779 2783 2785 2787 2789 2792 2794 2798 2800 2803 2805 2807 2809 2813 2816 2819 2821 2824 2826 2828 2831 2833 2836 2839 2841 2844 2846 2849 2851 2854 2856 2858 2860 2862 2864 2866 2868 2870 2872 2873 2875 2876 2878
2834 2831 2827 2824 2821 2818 2814 2811 2808 2804 2800 2797 2793 2790 2787 2785 2782 2780 2777 2775 2773 2772 2770 2768 2767 2765 2765 2765 2764 2763 2762 2762 2763 2763 2764 2765 2766 2767 2768 2770 2771 2772 2775 2778 2779 2781 2784 2787 2790 2792 2795 2797 2800 2801 2804 2808 2811 2814 2816 2818 2821 2824 2826 2829 2831 2834 2836 2839 2841 2843 2845 2847 2850 2852 2854 2855 2858 2860 2862 2863 2865 2866 2868 2869 2871
2829 2826 2822 2819 2816 2813 2810 2807 2803 2800 2796 2792 2789 2786 2783 2780 2778 2776 2774 2771 2769 2767 2766 2765 2763 2762 2761 2761 2760 2759 2758 2758 2759 2759 2759 2760 2762 2763 2764 2765 2767 2768 2771 2773 2774 2776 2779 2782 2785 2786 2789 2792 2794 2796 2799 2803 2807 2810 2812 2814 2817 2819 2822 2824 2826 2829 2831 2833 2835 2837 2839 2841 2843 2845 2847 2849 2851 2853 2855 2857 2858 2859 2861 2863 2864
2825 2821 2818 2814 2811 2808 2805 2802 2799 2796 2792 2788 2785 2782 2779 2776 2774 2772 2770 2768 2765 2764 2763 2761 2760 2759 2758 2758 2757 2756 2755 2755 2756 2756 2756 2757 2758 2759 2760 2762 2763 2764 2766 2768 2770 2772 2774 2777 2779 2781 2785 2788 2790 2793 2796 2799 2802 2805 2807 2809 2811 2814 2816 2818 2821 2823 2825 2828 2830 2832 2834 2836 2837 2839 2841 2843 2845 2847 2848 2850 2852 2853 2854 2856 2857
2820 2817 2814 2810 2807 2804 2801 2798 2795 2792 2789 2786 2782 2779 2775 2773 2771 2769 2767 2765 2763 2761 2760 2758 2757 2756 2755 2755 2754 2753 2753 2753 2753 2754 2754 2755 2755 2756 2757 2758 2760 2761 2763 2765 2767 2768 2770 2773 2776 2778 2781 2784 2787 2789 2792 2794 2796 2799 2802 2804 2806 2808 2811 2813 2816 2818 2821 2823 2825 2827 2829 2831 2833 2834 2836 2838 2840 2841 2843 2844 2846 2847 2848 2850 2851
2816 2813 2810 2807 2803 2800 2797 2794 2791 2789 2786 2783 2780 2776 2773 2770 2768 2766 2764 2762 2760 2759 2757 2756 2755 2754 2753 2752 2751 2751 2751 2751 2751 2751 2752 2752 2753 2754 2755 2756 2758 2759 2761 2762 2763 2765 2767 2770 2772 2774 2777 2779 2782 2785 2787 2789 2791 2794 2797 2800 2802 2804 2807 2809 2811 2814 2816 2818 2821 2822 2824 2826 2828 2830 2831 2833 2835 2836 2837 2839 2840 2841 2843 2844 2845
2812 2809 2806 2803 2800 2797 2793 2790 2787 2785 2782 2779 2776 2774 2771 2768 2765 2763 2761 2759 2758 2757 2755 2754 2753 2751 2751 2750 2749 2749 2749 2749 2749 2750 2750 2751 2751 2752 2753 2754 2755 2757 2758 2759 2761 2762 2764 2767 2769 2771 2773 2775 2778 2780 2783 2785 2787 2790 2792 2795 2798 2800 2802 2804 2807 2809 2811 2814 2816 2817 2819 2821 2823 2825 2827 2828 2830 2831 2832 2834 2835 2836 2837 2838 2839
2808 2805 2802 2799 2796 2793 2790 2787 2784 2781 2779 2776 2774 2771 2768 2765 2763 2761 2759 2757 2755 2754 2753 2752 2750 2749 2749 2748 2747 2747 2747 2748 2748 2748 2749 2749 2750 2750 2751 2752 2753 2754 2756 2757 2758 2760 2762 2764 2765 2767 2769 2772 2774 2777 2779 2781 2783 2786 2788 2791 2793 2796 2798 2800 2802 2804 2807 2809 2811 2813 2815 2816 2818 2820 2822 2823 2825 2826 2827 2829 2830 2831 2832 2833 2834
2803 2801 2798 2795 2792 2789 2787 2784 2781 2778 2775 2773 2771 2769 2766 2763 2760 2758 2757 2755 2753 2752 2751 2750 2748 2747 2747 2746 2746 2745 2746 2746 2746 2746 2747 2747 2748 2748 2749 2750 2751 2752 2753 2754 2756 2757 2759 2761 2762 2764 2766 2769 2771 2774 2776 2778 2780 2782 2785 2787 2789 2792 2794 2796 2798 2800 2802 2805 2807 2809 2810 2812 2814 2816 2817 2818 2820 2821 2823 2824 2825 2826 2827 2828 2829
2798 2796 2793 2791 2788 2785 2782 2780 2777 2775 2772 2769 2767 2765 2764 2761 2758 2755 2753 2753 2752 2750 2749 2748 2746 2745 2744 2744 2744 2743 2744 2744 2744 2745 2745 2745 2746 2747 2748 2748 2749 2750 2751 2753 2754 2755 2757 2758 2760 2762 2764 2766 2769 2771 2773 2775 2777 2779 2781 2783 2785 2787 2790 2792 2794 2796 2798 2800 2802 2804 2806 2807 2809 2811 2813 2814 2816 2817 2818 2819 2821 2822 2823 2824 2824
2793 2791 2788 2786 2783 2781 2778 2775 2773 2771 2768 2766 2764 2761 2759 2758 2757 2754 2751 2749 2749 2748 2747 2745 2744 2743 2743 2742 2742 2741 2742 2742 2743 2743 2743 2743 2744 2745 2746 2747 2747 2748 2749 2751 2752 2753 2755 2757 2759 2760 2762 2764 2766 2768 2770 2773 2775 2776 2778 2780 2782 2784 2786 2788 2790 2792 2794 2796 2797 2799 2801 2802 2804 2805 2807 2809 2810 2812 2813 2814 2816 2817 2818 2819 2820
2788 2786 2783 2780 2779 2777 2774 2771 2769 2766 2764 2762 2760 2758 2756 2754 2753 2752 2750 2747 2746 2745 2744 2743 2743 2742 2741 2740 2740 2740 2740 2741 2741 2741 2741 2742 2743 2744 2744 2745 2746 2747 2748 2749 2750 2752 2753 2755 2757 2758 2760 2762 2764 2766 2768 2770 2772 2774 2775 2777 2779 2781 2783 2784 2786 2788 2790 2791 2793 2795 2796 2798 2799 2800 2802 2803 2805 2806 2807 2809 2810 2811 2812 2813 2814
2784 2781 2778 2775 2773 2772 2770 2767 2765 2763 2760 2758 2757 2755 2753 2751 2749 2749 2748 2746 2744 2743 2742 2741 2740 2740 2739 2739 2739 2738 2739 2739 2739 2739 2740 2740 2741 2742 2743 2743 2744 2745 2746 2747 2748 2750 2752 2753 2755 2756 2758 2760 2762 2764 2766 2768 2769 2771 2773 2775 2776 2778 2780 2781 2783 2785 2786 2788 2789 2791 2792 2794 2795 2796 2797 2799 2800 2801 2802 2804 2805 2806 2807 2807 2808
2779 2777 2774 2771 2769 2767 2765 2763 2761 2758 2756 2755 2753 2751 2750 2748 2746 2745 2744 2743 2742 2741 2739 2739 2738 2738 2737 2737 2737 2737 2737 2737 2737 2737 2738 2739 2740 2740 2741 2742 2743 2743 2744 2745 2747 2748 2750 2751 2753 2754 2756 2758 2759 2761 2763 2765 2767 2769 2770 2772 2774 2776 2777 2779 2780 2782 2783 2785 2786 2787 2789 2790 2791 2792 2793 2794 2796 2797 2798 2799 2800 2801 2802 2803 2803
2774 2772 2770 2767 2765 2763 2761 2759 2757 2754 2752 2750 2749 2747 2746 2745 2743 2742 2740 2739 2739 2738 2737 2736 2736 2736 2735 2735 2735 2735 2735 2735 2735 2736 2736 2737 2738 2739 2739 2740 2741 2741 2742 2744 2745 2746 2748 2749 2751 2752 2754 2755 2757 2759 2761 2763 2765 2766 2768 2770 2771 2773 2775 2776 2778 2779 2780 2781 2782 2784 2785 2786 2787 2788 2789 2790 2792 2793 2794 2795 2796 2797 2797 2798 2799
2769 2767 2765 2762 2760 2758 2756 2754 2752 2750 2748 2746 2745 2743 2742 2741 2740 2738 2737 2736 2736 2735 2734 2733 2733 2733 2733 2732 2733 2733 2733 2733 2734 2734 2734 2735 2736 2736 2737 2738 2739 2740 2741 2742 2743 2745 2746 2748 2749 2750 2752 2753 2755 2757 2759 2760 2762 2764 2765 2767 2769 2770 2772 2773 2775 2776 2777 2778 2779 2780 2781 2782 2783 2784 2785 2786 2787 2788 2790 2790 2791 2792 2793 2794 2794
2764 2762 2759 2757 2755 2753 2751 2750 2748 2746 2744 2742 2740 2739 2738 2737 2736 2735 2734 2733 2732 2732 2731 2731 2730 2730 2730 2730 2730 2731 2731 2731 2732 2732 2733 2733 2734 2734 2735 2736 2737 2738 2739 2740 2741 2743 2744 2746 2747 2748 2750 2751 2753 2755 2756 2758 2760 2761 2763 2764 2766 2768 2769 2770 2772 2773 2774 2775 2776 2777 2778 2778 2779 2780 2781 2782 2783 2784 2785 2786 2787 2788 2789 2789 2790
2760 2757 2755 2752 2750 2748 2746 2744 2742 2741 2739 2737 2736 2734 2733 2733 2732 2731 2730 2730 2729 2729 2728 2728 2728 2727 2727 2727 2728 2728 2729 2729 2730 2730 2731 2731 2732 2732 2733 2734 2735 2736 2737 2738 2739 2741 2742 2744 2745 2746 2748 2749 2751 2752 2754 2756 2757 2759 2760 2762 2763 2765 2766 2767 2768 2769 2770 2771 2772 2773 2774 2775 2776 2777 2778 2779 2780 2780 2781 2782 2783 2784 2785 2786 2787
2755 2753 2750 2747 2745 2743 2741 2739 2737 2735 2734 2732 2731 2730 2729 2728 2728 2727 2727 2726 2726 2725 2725 2725 2725 2724 2724 2725 2725 2726 2726 2727 2727 2728 2729 2729 2729 2730 2731 2732 2733 2734 2735 2736 2737 2738 2740 2741 2743 2744 2745 2747 2748 2750 2752 2753 2755 2756 2757 2759 2760 2761 2762 2763 2764 2765 2766 2767 2768 2769 2770 2771 2772 2773 2774 2775 2776 2776 2777 2778 2779 2780 2781 2782 2783
2749 2747 2745 2742 2740 2738 2736 2734 2732 2730 2729 2727 2726 2725 2724 2723 2723 2723 2723 2722 2722 2722 2722 2722 2721 2721 2721 2722 2722 2723 2723 2724 2725 2726 2726 2727 2727 2728 2729 2730 2731 2732 2733 2734 2735 2736 2737 2739 2740 2742 2743 2745 2746 2748 2749 2751 2752 2753 2755 2756 2757 2758 2759 2760 2761 2761 2762 2763 2764 2765 2767 2768 2769 2770 2770 2771 2772 2773 2774 2775 2775 2776 2777 2778 2779
2744 2742 2739 2737 2735 2732 2731 2729 2727 2725 2724 2722 2721 2720 2719 2719 2718 2718 2718 2718 2718 2718 2718 2718 2718 2718 2718 2718 2719 2720 2721 2721 2722 2723 2723 2724 2725 2726 2726 2727 2728 2729 2730 2731 2732 2734 2735 2736 2738 2739 2741 2742 2744 2745 2747 2748 2750 2751 2752 2753 2754 2755 2756 2757 2757 2758 2759 2760 2761 2762 2763 2764 2765 2766 2766 2767 2768 2769 2770 2771 2772 2772 2773 2774 2775
2739 2736 2734 2732 2729 2727 2725 2724 2722 2721 2719 2718 2716 2715 2714 2714 2713 2713 2713 2713 2714 2714 2714 2714 2714 2714 2715 2715 2716 2717 2718 2718 2719 2720 2720 2721 2722 2723 2724 2725 2726 2727 2728 2729 2730 2732 2733 2734 2735 2737 2738 2740 2741 2743 2744 2746 2747 2748 2749 2750 2751 2752 2752 2753 2754 2755 2755 2756 2757 2758 2759 2760 2761 2762 2763 2764 2765 2766 2766 2767 2768 2769 2770 2771 2772
2734 2731 2729 2726 2724 2722 2720 2718 2717 2715 2714 2713 2712 2710 2709 2709 2708 2708 2708 2709 2709 2709 2710 2710 2711 2711 2711 2712 2713 2713 2714 2715 2715 2716 2717 2718 2719 2720 2721 2722 2723 2724 2726 2727 2728 2729 2731 2732 2733 2734 2735 2737 2738 2740 2741 2742 2743 2744 2745 2746 2747 2748 2749 2750 2751 2751 2752 2753 2753 2754 2756 2757 2758 2759 2760 2761 2762 2763 2763 2764 2765 2766 2767 2768 2768
2728 2726 2724 2721 2719 2717 2715 2713 2711 2710 2709 2708 2707 2705 2704 2704 2703 2703 2703 2704 2704 2705 2705 2706 2707 2707 2708 2708 2709 2710 2711 2711 2712 2713 2714 2715 2716 2717 2718 2719 2720 2722 2723 2724 2725 2727 2728 2729 2730 2731 2733 2734 2736 2737 2738 2739 2740 2741 2742 2743 2744 2745 2746 2747 2747 2748 2749 2750 2750 2751 2752 2754 2755 2756 2757 2758 2759 2760 2761 2762 2762 2763 2764 2765 2766
2723 2720 2718 2716 2714 2712 2710 2708 2706 2705 2704 2703 2702 2701 2700 2699 2698 2698 2698 2699 2699 2700 2700 2701 2702 2703 2704 2704 2705 2706 2707 2708 2709 2710 2711 2712 2713 2714 2715 2716 2718 2719 2720 2722 2723 2724 2726 2727 2728 2729 2730 2732 2733 2734 2736 2737 2738 2739 2739 2740 2741 2742 2743 2743 2744 2745 2746 2746 2747 2748 2749 2750 2751 2752 2754 2755 2756 2757 2758 2759 2760 2760 2761 2762 2764
2717 2715 2712 2710 2708 2706 2704 2703 2701 2700 2699 2698 2697 2696 2695 2694 2694 2694 2694 2694 2694 2695 2695 2696 2697 2698 2699 2700 2701 2702 2703 2704 2705 2706 2708 2709 2710 2711 2712 2713 2715 2716 2718 2719 2720 2722 2723 2724 2725 2727 2728 2729 2731 2732 2733 2734 2735 2736 2736 2737 2738 2738 2739 2740 2741 2741 2742 2743 2744 2745 2746 2747 2748 2749 2750 2752 2753 2754 2755 2756 2757 2758 2759 2760 2762
2712 2709 2707 2705 2703 2701 2699 2698 2696 2695 2694 2693 2692 2691 2691 2690 2690 2689 2689 2689 2689 2690 2690 2691 2692 2693 2694 2696 2697 2698 2699 2700 2701 2702 2703 2705 2706 2707 2709 2710 2712 2713 2715 2716 2717 2719 2720 2721 2722 2724 2725 2726 2728 2729 2730 2731 2732 2733 2733 2734 2735 2735 2736 2736 2737 2738 2739 2739 2740 2742 2743 2744 2745 2746 2747 2749 2750 2751 2752 2753 2754 2756 2757 2758 2760
2706 2704 2702 2700 2698 2696 2695 2693 2692 2691 2690 2689 2688 2687 2686 2686 2685 2685 2685 2684 2685 2685 2685 2686 2687 2688 2689 2690 2692 2693 2695 2696 2697 2698 2699 2701 2702 2704 2705 2707 2709 2710 2711 2713 2714 2716 2717 2718 2720 2721 2722 2724 2725 2726 2727 2728 2729 2730 2730 2731 2732 2733 2733 2734 2735 2735 2736 2737 2738 2739 2740 2741 2742 2744 2745 2746 2747 2748 2750 2751 2752 2754 2755 2757 2758
2702 2700 2698 2696 2694 2692 2690 2689 2687 2686 2685 2684 2683 2682 2682 2681 2681 2680 2680 2680 2680 2680 2681 2681 2682 2683 2684 2685 2687 2688 2690 2691 2692 2694 2695 2697 2698 2700 2702 2703 2705 2707 2708 2710 2711 2713 2714 2716 2717 2718 2720 2721 2722 2723 2724 2725 2726 2727 2728 2728 2729 2730 2731 2731 2732 2733 2734 2734 2735 2736 2738 2739 2740 2741 2742 2744 2745 2746 2748 2750 2751 2753 2754 2756 2757
2697 2695 2693 2691 2689 2687 2686 2684 2683 2681 2680 2679 2678 2678 2677 2676 2676 2676 2676 2676 2676 2676 2676 2677 2677 2678 2679 2680 2682 2683 2685 2686 2688 2689 2691 2693 2694 2696 2698 2699 2701 2703 2705 2706 2708 2710 2711 2712 2714 2715 2717 2718 2719 2720 2721 2722 2723 2724 2725 2726 2726 2727 2728 2729 2729 2730 2731 2732 2733 2734 2736 2737 2738 2739 2740 2742 2743 2745 2747 2748 2750 2752 2753 2754 2755